When you browse on this site, cookies collect data to enhance your experience and personalize the content and advertising you see.
Visit our Privacy Policy to learn more. By continuing to use the site, you agree to this use of cookies and data.
  • In Österreich
  • Länderverzeichnis
  • Für 7 Tage
  • Wassertemperatur
  • Wetterkarte
  • News
  • Widgets
  • user-avatar
    Anmelden

    Stündliche Wetter Mayrhofen

    Heute, 22 Oktober, Dienstag

    Zeit Temperatur Niederschläge Wind Luftdruck Luftfeuchtigkeit
    00:00 +7°C° 0 mm 2 m/S 622 mmHg 95%
    01:00 +7°C° 0 mm 2 m/S 622 mmHg 94%
    02:00 +7°C° 0 mm 2 m/S 622 mmHg 94%
    03:00 +7°C° 0 mm 2 m/S 621 mmHg 93%
    04:00 +6°C° 0 mm 2 m/S 621 mmHg 92%
    05:00 +6°C° 0 mm 2 m/S 621 mmHg 91%
    06:00 +6°C° 0 mm 2 m/S 621 mmHg 90%
    07:00 +6°C° 0 mm 2 m/S 621 mmHg 89%
    08:00 +8°C° 0 mm 2 m/S 622 mmHg 83%
    09:00 +10°C° 0 mm 2 m/S 623 mmHg 77%
    10:00 +13°C° 0 mm 2 m/S 623 mmHg 70%
    11:00 +14°C° 0 mm 2 m/S 624 mmHg 67%
    12:00 +15°C° 0 mm 2 m/S 624 mmHg 63%
    13:00 +16°C° 0 mm 2 m/S 624 mmHg 59%
    14:00 +15°C° 0 mm 2 m/S 624 mmHg 63%
    15:00 +14°C° 0 mm 2 m/S 623 mmHg 68%
    16:00 +14°C° 0 mm 2 m/S 623 mmHg 72%
    17:00 +12°C° 0 mm 2 m/S 622 mmHg 76%
    18:00 +9°C° 0 mm 2 m/S 622 mmHg 81%
    19:00 +8°C° 0 mm 2 m/S 621 mmHg 85%
    20:00 +7°C° 0 mm 2 m/S 621 mmHg 85%
    21:00 +7°C° 0 mm 2 m/S 621 mmHg 85%
    22:00 +7°C° 0 mm 2 m/S 621 mmHg 85%
    23:00 +7°C° 0 mm 2 m/S 621 mmHg 85%

    Morgen, 23 Oktober, Mittwoch

    Zeit Temperatur Niederschläge Wind Luftdruck Luftfeuchtigkeit
    00:00 +7°C° 0 mm 2 m/S 621 mmHg 84%
    01:00 +7°C° 0 mm 3 m/S 621 mmHg 84%
    02:00 +5°C° 0 mm 3 m/S 620 mmHg 83%
    03:00 +5°C° 0 mm 3 m/S 620 mmHg 82%
    04:00 +6°C° 0 mm 2 m/S 619 mmHg 81%
    05:00 +5°C° 0 mm 3 m/S 619 mmHg 80%
    06:00 +5°C° 0 mm 3 m/S 619 mmHg 78%
    07:00 +5°C° 0 mm 3 m/S 619 mmHg 77%
    08:00 +8°C° 0 mm 3 m/S 620 mmHg 70%
    09:00 +10°C° 0 mm 3 m/S 620 mmHg 62%
    10:00 +13°C° 0 mm 3 m/S 621 mmHg 55%
    11:00 +14°C° 0 mm 3 m/S 621 mmHg 50%
    12:00 +14°C° 0 mm 3 m/S 621 mmHg 46%
    13:00 +16°C° 0 mm 3 m/S 621 mmHg 42%
    14:00 +14°C° 0 mm 3 m/S 621 mmHg 48%
    15:00 +13°C° 0 mm 3 m/S 620 mmHg 54%
    16:00 +12°C° 0 mm 3 m/S 619 mmHg 59%
    17:00 +10°C° 0 mm 3 m/S 619 mmHg 64%
    18:00 +9°C° 0 mm 3 m/S 618 mmHg 69%
    19:00 +7°C° 0 mm 3 m/S 618 mmHg 73%
    20:00 +7°C° 0 mm 3 m/S 618 mmHg 75%
    21:00 +7°C° 0 mm 3 m/S 618 mmHg 77%
    22:00 +5°C° 0 mm 3 m/S 618 mmHg 78%
    23:00 +5°C° 0 mm 3 m/S 617 mmHg 78%

    übermorgen, 24 Oktober, Donnerstag

    Zeit Temperatur Niederschläge Wind Luftdruck Luftfeuchtigkeit
    00:00 +5°C° 0 mm 3 m/S 617 mmHg 78%
    01:00 +5°C° 0 mm 4 m/S 617 mmHg 78%
    02:00 +5°C° 0 mm 3 m/S 617 mmHg 78%
    03:00 +5°C° 0 mm 3 m/S 617 mmHg 77%
    04:00 +5°C° 0 mm 3 m/S 616 mmHg 77%
    05:00 +5°C° 0 mm 3 m/S 616 mmHg 76%
    06:00 +5°C° 0 mm 3 m/S 616 mmHg 74%
    07:00 +5°C° 0 mm 3 m/S 616 mmHg 73%
    08:00 +8°C° 0 mm 3 m/S 617 mmHg 67%
    09:00 +10°C° 0 mm 3 m/S 618 mmHg 61%
    10:00 +12°C° 0 mm 3 m/S 619 mmHg 55%
    11:00 +13°C° 0 mm 3 m/S 619 mmHg 54%
    12:00 +14°C° 0 mm 3 m/S 619 mmHg 53%
    13:00 +16°C° 0 mm 3 m/S 619 mmHg 51%
    14:00 +15°C° 0 mm 2 m/S 619 mmHg 56%
    15:00 +14°C° 0 mm 2 m/S 619 mmHg 61%
    16:00 +13°C° 0 mm 2 m/S 619 mmHg 65%
    17:00 +10°C° 0 mm 2 m/S 618 mmHg 72%
    18:00 +8°C° 0 mm 2 m/S 618 mmHg 78%
    19:00 +8°C° 0 mm 1 m/S 617 mmHg 85%
    20:00 +7°C° 0 mm 1 m/S 617 mmHg 85%
    21:00 +7°C° 0 mm 1 m/S 618 mmHg 86%
    22:00 +7°C° 0 mm 1 m/S 618 mmHg 87%
    23:00 +6°C° 0 mm 1 m/S 618 mmHg 88%

    25 Oktober, Freitag

    Zeit Temperatur Niederschläge Wind Luftdruck Luftfeuchtigkeit
    00:00 +6°C° 0 mm 1 m/S 618 mmHg 90%
    01:00 +6°C° 0 mm 1 m/S 618 mmHg 92%
    02:00 +5°C° 0 mm 1 m/S 618 mmHg 92%
    03:00 +5°C° 0 mm 1 m/S 618 mmHg 92%
    04:00 +5°C° 0 mm 1 m/S 618 mmHg 93%
    05:00 +5°C° 0 mm 1 m/S 618 mmHg 93%
    06:00 +6°C° 0 mm 1 m/S 619 mmHg 94%
    07:00 +6°C° 0 mm 1 m/S 619 mmHg 95%
    08:00 +7°C° 0 mm 1 m/S 620 mmHg 89%
    09:00 +9°C° 0 mm 1 m/S 621 mmHg 84%
    10:00 +10°C° 0 mm 1 m/S 621 mmHg 78%
    11:00 +12°C° 0 mm 1 m/S 622 mmHg 71%
    12:00 +13°C° 0 mm 1 m/S 622 mmHg 64%
    13:00 +15°C° 0 mm 1 m/S 623 mmHg 58%
    14:00 +14°C° 0 mm 1 m/S 622 mmHg 61%
    15:00 +14°C° 0 mm 1 m/S 622 mmHg 65%
    16:00 +13°C° 0 mm 1 m/S 621 mmHg 69%
    17:00 +11°C° 0 mm 1 m/S 621 mmHg 74%
    18:00 +10°C° 0 mm 1 m/S 620 mmHg 79%
    19:00 +8°C° 0 mm 1 m/S 619 mmHg 84%
    20:00 +6°C° 0 mm 2 m/S 619 mmHg 84%
    21:00 +6°C° 0 mm 2 m/S 619 mmHg 84%
    22:00 +6°C° 0 mm 2 m/S 619 mmHg 85%
    23:00 +5°C° 0 mm 2 m/S 619 mmHg 85%

    26 Oktober, Samstag

    Zeit Temperatur Niederschläge Wind Luftdruck Luftfeuchtigkeit
    00:00 +5°C° 0 mm 2 m/S 619 mmHg 85%
    01:00 +6°C° 0 mm 1 m/S 619 mmHg 84%
    02:00 +6°C° 0 mm 1 m/S 619 mmHg 84%
    03:00 +5°C° 0 mm 1 m/S 619 mmHg 83%
    04:00 +5°C° 0 mm 1 m/S 618 mmHg 83%
    05:00 +5°C° 0 mm 1 m/S 618 mmHg 81%
    06:00 +5°C° 0 mm 1 m/S 619 mmHg 79%
    07:00 +4°C° 0 mm 0 m/S 619 mmHg 77%
    08:00 +7°C° 0 mm 0 m/S 620 mmHg 68%
    09:00 +10°C° 0 mm 1 m/S 621 mmHg 60%
    10:00 +13°C° 0 mm 1 m/S 623 mmHg 51%
    11:00 +14°C° 0 mm 1 m/S 623 mmHg 50%
    12:00 +15°C° 0 mm 1 m/S 623 mmHg 48%
    13:00 +16°C° 0 mm 1 m/S 623 mmHg 47%
    14:00 +15°C° 0 mm 1 m/S 622 mmHg 54%
    15:00 +14°C° 0 mm 1 m/S 622 mmHg 61%
    16:00 +13°C° 0 mm 1 m/S 621 mmHg 68%
    17:00 +10°C° 0 mm 0 m/S 621 mmHg 75%
    18:00 +8°C° 0 mm 0 m/S 620 mmHg 81%
    19:00 +6°C° 0 mm 0 m/S 620 mmHg 87%
    20:00 +6°C° 0 mm 0 m/S 620 mmHg 87%
    21:00 +5°C° 0 mm 0 m/S 620 mmHg 87%
    22:00 +5°C° 0 mm 0 m/S 620 mmHg 86%
    23:00 +5°C° 0 mm 0 m/S 619 mmHg 86%

    27 Oktober, Sonntag

    Zeit Temperatur Niederschläge Wind Luftdruck Luftfeuchtigkeit
    00:00 +4°C° 0 mm 0 m/S 619 mmHg 86%
    01:00 +4°C° 0 mm 0 m/S 619 mmHg 86%
    02:00 +4°C° 0 mm 0 m/S 619 mmHg 87%
    03:00 +4°C° 0 mm 0 m/S 619 mmHg 88%
    04:00 +5°C° 0 mm 1 m/S 619 mmHg 89%
    05:00 +5°C° 0 mm 1 m/S 619 mmHg 90%
    06:00 +5°C° 0 mm 1 m/S 620 mmHg 91%
    07:00 +6°C° 0 mm 1 m/S 620 mmHg 92%
    08:00 +7°C° 0 mm 1 m/S 620 mmHg 89%
    09:00 +8°C° 0 mm 1 m/S 621 mmHg 86%
    10:00 +9°C° 0 mm 1 m/S 622 mmHg 82%
    11:00 +10°C° 0 mm 1 m/S 622 mmHg 78%
    12:00 +11°C° 0 mm 1 m/S 622 mmHg 74%
    13:00 +12°C° 0 mm 1 m/S 622 mmHg 69%
    14:00 +11°C° 0 mm 1 m/S 622 mmHg 73%
    15:00 +11°C° 0 mm 1 m/S 621 mmHg 77%
    16:00 +10°C° 0 mm 1 m/S 621 mmHg 81%
    17:00 +8°C° 0 mm 0 m/S 620 mmHg 86%
    18:00 +6°C° 0 mm 0 m/S 620 mmHg 91%
    19:00 +5°C° 0 mm 0 m/S 620 mmHg 95%
    20:00 +5°C° 0 mm 0 m/S 620 mmHg 96%
    21:00 +5°C° 0 mm 0 m/S 620 mmHg 96%
    22:00 +5°C° 0 mm 0 m/S 620 mmHg 96%
    23:00 +5°C° 0 mm 0 m/S 620 mmHg 96%

    28 Oktober, Montag

    Zeit Temperatur Niederschläge Wind Luftdruck Luftfeuchtigkeit
    00:00 +5°C° 0 mm 0 m/S 620 mmHg 95%
    01:00 +5°C° 0 mm 0 m/S 620 mmHg 95%
    02:00 +5°C° 0 mm 0 m/S 619 mmHg 95%
    03:00 +5°C° 0 mm 0 m/S 619 mmHg 95%
    04:00 +5°C° 0 mm 0 m/S 619 mmHg 95%
    05:00 +5°C° 0 mm 0 m/S 619 mmHg 95%
    06:00 +5°C° 0 mm 0 m/S 619 mmHg 96%
    07:00 +5°C° 0 mm 0 m/S 619 mmHg 96%
    08:00 +6°C° 0.1 mm 0 m/S 619 mmHg 93%
    09:00 +6°C° 0.1 mm 0 m/S 619 mmHg 91%
    10:00 +7°C° 0.1 mm 0 m/S 619 mmHg 89%
    11:00 +7°C° 0.1 mm 0 m/S 619 mmHg 88%
    12:00 +7°C° 0.1 mm 0 m/S 619 mmHg 88%
    13:00 +7°C° 0.1 mm 0 m/S 619 mmHg 87%
    14:00 +7°C° 0.1 mm 0 m/S 619 mmHg 88%
    15:00 +7°C° 0.1 mm 0 m/S 619 mmHg 90%
    16:00 +7°C° 0.1 mm 0 m/S 618 mmHg 91%
    17:00 +6°C° 0.1 mm 0 m/S 618 mmHg 92%
    18:00 +6°C° 0.1 mm 0 m/S 618 mmHg 94%
    19:00 +5°C° 0.1 mm 0 m/S 618 mmHg 96%
    20:00 +5°C° 0.1 mm 0 m/S 618 mmHg 96%
    21:00 +5°C° 0.1 mm 0 m/S 618 mmHg 96%
    22:00 +5°C° 0.1 mm 0 m/S 617 mmHg 96%
    23:00 +5°C° 0.1 mm 0 m/S 617 mmHg 96%
    Mehr zeigen